Location: Dumpton Point
(51.3500°N, 1.4433°E)
Time: 05:48:35
(UTC+00:00)

Courier 1B Rocket - All Passes

Search period start: 14 April 2021 00:00
Search period end: 24 April 2021 00:00
Orbit: 920 x 1202 km, 28.2° (Epoch: 12 April)

Date Brightness Start Highest point End Pass type
(mag) Time Alt. Az. Time Alt. Az. Time Alt. Az.
14 Apr - 00:11:48 10° SSW 00:14:03 11° S 00:16:18 10° SSE night (unlit)
14 Apr - 23:11:25 10° S 23:13:21 11° S 23:15:18 10° SSE night (unlit)
16 Apr - 00:03:08 10° SSW 00:04:38 11° S 00:06:09 10° S night (unlit)
16 Apr - 23:02:09 10° SSW 23:03:56 11° S 23:05:45 10° SSE night (unlit)
17 Apr - 22:02:05 10° S 22:03:16 10° S 22:04:27 10° SSE visible
19 Apr - 21:53:17 10° S 21:53:53 10° S 21:54:29 10° S visible
